Flag for Ecuador Weather past 2 weeks in Quito, Ecuador

Now
73 °F

Thunderstorms. Overcast.


Feels Like: 74 °F
Forecast: 47 / 65 °F
Wind: 3 mph from South

Location: Latacunga Airport

Current Time: Aug 28, 2014 at 6:46:36 AM

Latest Report: Aug 28, 2014 at 6:00 AM


Visibility: N/A

Pressure: 29.89 "Hg

Humidity: 78%

Dew point: 66 °F

Location of QuitoLocation

Historic Weather in Quito — Graph

°F

Quito temperature yesterday

Maximum temperature yesterday: 61 °F (at 1:00 PM)
Minimum temperature yesterday: 46 °F (at 12:00 AM)
Average temperature yesterday: 53 °F

Past Weeks' High & Low Weather Summary

 TemperatureHumidityPressure
High68 °F (Aug 21, 2:00 PM)100% (Aug 13, 6:00 AM)30.51 "Hg (Aug 13, 6:00 AM)
Low41 °F (Aug 20, 4:00 AM)37% (Aug 13, 4:00 PM)29.89 "Hg (Aug 27, 10:00 AM)
Average53 °F79%30.42 "Hg
* Reported Aug 13 6:00 AM — Aug 28 6:00 AM, Quito, Weather by CustomWeather, © 2014

Note: Actual official high and low records may vary slightly from our data, if they occured in-between our weather recording intervals... More about our weather records

Advertising

Quito weather history for previous 24 hours

 ConditionsComfort  
Time TempWeatherWind HumidityBarometerVisibility
6:00 AM
Aug 28
48 °FThunderstorms. Overcast.3 mph100%30.42 "HgN/A
5:00 AM48 °FThunderstorms. Overcast.No wind100%30.42 "HgN/A
4:00 AM48 °FPartly cloudy.2 mph100%30.42 "HgN/A
3:00 AM48 °FPassing clouds.1 mph100%30.39 "HgN/A
2:00 AM48 °FPassing clouds.2 mph100%30.42 "HgN/A
1:00 AM48 °FPassing clouds.3 mph100%30.42 "HgN/A
12:00 AM48 °FPassing clouds.3 mph100%30.45 "HgN/A
11:00 PM
Aug 27
50 °FPassing clouds.7 mph94%30.45 "HgN/A
10:00 PM52 °FPassing clouds.7 mph94%30.42 "HgN/A
9:00 PM52 °FPartly cloudy.10 mph94%30.42 "HgN/A
8:00 PM54 °FPassing clouds.13 mph88%30.39 "HgN/A
7:00 PM55 °FPartly cloudy.16 mph82%30.36 "HgN/A
6:00 PM59 °FPartly sunny.15 mph72%30.33 "HgN/A
5:00 PM61 °FScattered clouds.17 mph68%30.30 "HgN/A
4:00 PM61 °FBroken clouds.16 mph68%30.33 "HgN/A
3:00 PM61 °FScattered showers. Broken clouds.12 mph68%30.36 "HgN/A
2:00 PM61 °FScattered showers. Broken clouds.9 mph68%30.39 "HgN/A
1:00 PM61 °FBroken clouds.9 mph63%30.42 "HgN/A
12:00 PM59 °FBroken clouds.12 mph68%30.45 "HgN/A
11:00 AM57 °FBroken clouds.10 mph72%30.48 "HgN/A
10:00 AM54 °FBroken clouds.8 mph88%29.89 "HgN/A
9:00 AM54 °FBroken clouds.7 mph88%30.48 "HgN/A
8:00 AM52 °FPartly sunny.1 mph94%30.48 "HgN/A
7:00 AM48 °FPartly sunny.2 mph100%30.45 "HgN/A
6:00 AM48 °FLow clouds.3 mph100%30.45 "HgN/A
Weather by CustomWeather, © 2014

See weather overviewHow to use our weather pages